CZ-3B R/B (43649 NORAD) Tracking and Keplerian Element Data

This shows tracking and keplerian element data for the satellite.

Feedback or suggestion? Click here.




ElementValue
Catalog43649
NameCZ-3B R/B
Epoch Orbit131
Epoch Day317.79369753
Epoch Year2018
RAAN20.1297
Inclination54.9919
Eccentricity0.5803266
Argument of Perigee179.9613
Mean Anonmoly180.2305
Mean Motion4.41865552
Decay Rate0.0003548
L11 43649U 18078C 18317.79369753 .00035480 00000-0 11800-2 0 9991
L22 43649 54.9919 20.1297 5803266 179.9613 180.2305 4.41865552 1316



Live tracking and technical data element details for CZ-3B R/B (NORAD 43649). CZ-3B R/B can be tracked NOW for your location showing map with azimuth and elevation plus other details from your city location.







IsCatalogInMostPopularTable: catalog: 43649, numindb: 349
Update: records affected: 1



GetName: 43649 CZ-3B R/B

Hit Count: updated at: Thu, 15 May 2025 10:21:19 GMT